Location: Stonelick Lake State Park
(39.2170°N, 84.0850°W)
Time: 04:48:11
(UTC-04:00)

Amateur Radio Satellites - All Passes

Search period start: 18 April 2015 04:18
Search period end: 19 April 2015 04:18
Location: Stonelick Lake State Park, 39.2170°N, 84.0850°W

Satellite Date Start Highest point End Downlink Frequencies (MHz)
Time Altitude Azimuth
RS-15 18 Apr 04:22:24 04:30:41 21° 257° (WSW) 04:38:24 29.354- 29.394
BEESAT 3 18 Apr 04:31:11 04:32:01 11° 109° (ESE) 04:33:04 437.485
CUSAT 1 18 Apr 04:34:23 04:38:16 16° 66° (ENE) 04:42:58 437.405
PHONESAT 2.4 18 Apr 04:36:21 04:36:36 10° 216° (SW) 04:36:44 2401.200-2431.200
MOZHAYETS 4 18 Apr 04:40:44 04:44:29 25° 69° (ENE) 04:48:21
Gurwin Techsat 1B 18 Apr 04:56:03 05:01:01 40° 290° (WNW) 05:05:55 435.225
STARS 18 Apr 04:56:28 04:59:48 20° 267° (W) 05:03:02 437.465
ITAMSAT 1 18 Apr 05:17:47 05:21:45 22° 294° (WNW) 05:25:34 435.822/435.867
AUBIESAT-1 18 Apr 05:29:14 05:32:16 18° 60° (ENE) 05:35:30 437.475
AO-7 18 Apr 05:33:41 05:41:53 61° 103° (ESE) 05:50:07 29.400- 29.500
GONETS M04 18 Apr 05:36:03 05:44:57 79° 81° (E) 05:53:49
HORYU 2 18 Apr 05:50:54 05:55:12 43° 288° (WNW) 05:59:26 437.375
CUBESAT XI-V 18 Apr 05:55:13 05:56:54 12° 64° (ENE) 05:58:50 437.345
BEESAT 2 18 Apr 05:55:42 05:59:48 83° 123° (ESE) 06:03:59 435.950
JAS-2 18 Apr 05:57:43 06:04:36 85° 285° (WNW) 06:10:36 435.910
DANDE 18 Apr 05:58:07 06:04:30 53° 78° (ENE) 06:12:25 436.750
AIST 2 18 Apr 06:03:46 06:07:30 31° 114° (ESE) 06:11:20 435.215
BEESAT 3 18 Apr 06:05:30 06:09:33 64° 303° (WNW) 06:13:40 437.485
M-CUBED/EXP-1 PRIME 18 Apr 06:11:40 06:16:10 50° 68° (ENE) 06:20:52 437.505
CUSAT 1 18 Apr 06:14:52 06:21:44 85° 82° (E) 06:29:56 437.405
MOZHAYETS 4 18 Apr 06:17:28 06:21:37 31° 265° (W) 06:25:43
Cosmos 2499 18 Apr 06:33:58 06:40:52 31° 69° (ENE) 06:47:28 435.465 / 435.565
JUGNU 18 Apr 06:52:46 06:53:29 10° 177° (S) 06:54:13 437.505
PRISM 18 Apr 06:53:45 06:57:27 32° 71° (ENE) 07:01:12 437.425
AUBIESAT-1 18 Apr 07:02:04 07:06:37 55° 256° (WSW) 07:11:21 437.475
CUTE-I 18 Apr 07:03:26 07:07:33 23° 93° (E) 07:11:47 437.470
Cubesat XI-IV 18 Apr 07:10:12 07:14:38 27° 94° (E) 07:19:09 437.490
STRAND 1 18 Apr 07:24:13 07:29:11 53° 72° (ENE) 07:34:10 437.568
AO-7 18 Apr 07:27:14 07:34:17 31° 301° (WNW) 07:41:08 29.400- 29.500
CUBESAT XI-V 18 Apr 07:29:12 07:33:51 70° 259° (W) 07:38:30 437.345
GONETS M04 18 Apr 07:34:46 07:40:55 20° 279° (W) 07:46:36
BEESAT 2 18 Apr 07:36:49 07:38:34 12° 319° (NW) 07:40:11 435.950
DANDE 18 Apr 07:41:54 07:47:42 30° 268° (W) 07:54:17 436.750
AIST 2 18 Apr 07:42:29 07:46:07 26° 311° (NW) 07:49:44 435.215
JAS-2 18 Apr 07:45:00 07:48:33 14° 304° (NW) 07:51:36 435.910
M-CUBED/EXP-1 PRIME 18 Apr 07:48:12 07:51:21 17° 265° (W) 07:54:24 437.505
CUSAT 1 18 Apr 07:59:27 08:04:10 18° 272° (W) 08:08:53 437.405
Cosmos 2499 18 Apr 08:26:43 08:34:23 49° 270° (W) 08:41:25 435.465 / 435.565
PRISM 18 Apr 08:29:52 08:33:01 20° 267° (W) 08:36:02 437.425
BRITE-PL 18 Apr 08:32:47 08:34:03 11° 89° (E) 08:35:42 437.365/2234.400
SRMSAT 18 Apr 08:33:52 08:35:00 11° 177° (S) 08:36:09 437.500
CUTE-I 18 Apr 08:42:50 08:47:50 42° 290° (WNW) 08:52:46 437.470
HO-68 18 Apr 08:45:11 08:47:12 12° 85° (E) 08:49:47 435.675
Cubesat XI-IV 18 Apr 08:49:59 08:54:49 36° 291° (WNW) 08:59:35 437.490
GOMX 1 18 Apr 09:02:29 09:05:20 16° 91° (E) 09:08:32 467.674
STRAND 1 18 Apr 09:05:22 09:08:45 17° 269° (W) 09:11:56 437.568
CANX-2 18 Apr 09:23:14 09:26:02 17° 91° (E) 09:28:58 2200.000
SEEDS 18 Apr 09:29:31 09:31:54 15° 90° (E) 09:34:27 437.485
CUTE 1.7 + AOD 2 18 Apr 09:33:25 09:36:34 20° 92° (E) 09:39:50 437.475
PCSat 18 Apr 09:54:17 09:57:58 20° 107° (ESE) 10:01:52 145.827
AAUSAT CUBESAT 2 18 Apr 10:06:11 10:09:46 27° 95° (E) 10:13:22 437.432
BRITE-PL 18 Apr 10:08:15 10:13:03 76° 284° (WNW) 10:18:16 437.365/2234.400
Oscar 11 18 Apr 10:10:13 10:12:25 14° 90° (E) 10:14:49 145.826/435.025
ANTELSAT 18 Apr 10:17:24 10:20:00 16° 66° (ENE) 10:22:49 437.575/2403.000
DOVE 4 18 Apr 10:18:19 10:23:12 62° 100° (E) 10:28:21 437.250
CINEMA 3 18 Apr 10:27:50 10:32:25 40° 97° (E) 10:37:08 145.822/145.860
HO-68 18 Apr 10:28:59 10:36:13 78° 104° (ESE) 10:43:24 435.675
UWE-3 18 Apr 10:32:06 10:35:17 19° 91° (E) 10:38:39 435.000/436.395/437.385
QB50P1 18 Apr 10:33:43 10:33:58 10° 64° (ENE) 10:34:28 145.935-145.965
DELFI C3 18 Apr 10:36:22 10:39:19 20° 93° (E) 10:42:21 145.870
GOMX 1 18 Apr 10:39:00 10:43:48 57° 285° (WNW) 10:48:54 467.674
O/OREOS (USA 219) 18 Apr 10:48:15 10:52:47 80° 68° (ENE) 10:57:15 437.305
COMPASS 1 18 Apr 10:51:29 10:55:43 74° 284° (WNW) 10:59:54 437.405
BUGSAT 1 18 Apr 10:53:33 10:54:43 11° 65° (ENE) 10:56:05 437.445
QB50P2 18 Apr 10:53:57 10:56:47 18° 68° (ENE) 10:59:44 145.880/145.840
HUMSAT D 18 Apr 10:55:07 10:56:13 11° 88° (E) 10:57:35 437.325/437.525
CANX-2 18 Apr 10:58:09 11:02:10 37° 288° (WNW) 11:06:06 2200.000
FUNcube-1 18 Apr 11:03:38 11:07:42 31° 95° (E) 11:11:48 145.935
SEEDS 18 Apr 11:03:55 11:07:59 42° 287° (WNW) 11:11:58 437.485
CUTE 1.7 + AOD 2 18 Apr 11:08:44 11:12:35 32° 289° (WNW) 11:16:22 437.475
TIGRISAT 18 Apr 11:09:59 11:14:16 55° 74° (ENE) 11:18:43 435.000
UNISAT 6 18 Apr 11:10:20 11:14:40 57° 74° (ENE) 11:19:09 437.425
Cosmos 2491 18 Apr 11:10:43 11:19:11 49° 75° (ENE) 11:27:42 435.465 / 435.565
POPSAT HIP 1 18 Apr 11:16:25 11:20:06 31° 71° (ENE) 11:23:50 437.405
NANOSAT C BR1 18 Apr 11:17:05 11:20:46 31° 71° (ENE) 11:24:32 145.865
AISAT 18 Apr 11:18:01 11:19:38 12° 89° (E) 11:21:32 437.250
UKube-1 18 Apr 11:23:11 11:26:55 28° 96° (E) 11:30:41 .
CUBEBUG 2 18 Apr 11:23:24 11:28:09 81° 104° (ESE) 11:32:56 437.445
ZACube-1 18 Apr 11:25:13 11:29:45 55° 99° (E) 11:34:16 437.345
PCSat 18 Apr 11:35:43 11:41:01 54° 302° (WNW) 11:46:21 145.827
POLYITAN 1 18 Apr 11:41:39 11:45:48 63° 75° (ENE) 11:50:00 437.675
AAUSAT CUBESAT 2 18 Apr 11:41:55 11:45:18 23° 290° (WNW) 11:48:34 437.432
Oscar 11 18 Apr 11:44:44 11:48:56 47° 286° (WNW) 11:53:06 145.826/435.025
ANTELSAT 18 Apr 11:52:08 11:56:25 48° 262° (W) 12:00:50 437.575/2403.000
DUCHIFAT 1 18 Apr 11:53:07 11:57:18 82° 77° (ENE) 12:01:31 145.980
50 SAT 18 Apr 11:57:21 12:01:05 35° 97° (E) 12:04:49 437.505
DOVE 4 18 Apr 11:57:37 12:00:36 16° 293° (WNW) 12:03:26 437.250
DX 1 18 Apr 12:03:47 12:08:09 89° 99° (E) 12:12:31 434.975-435.025
QB50P1 18 Apr 12:05:09 12:09:20 70° 259° (WSW) 12:13:32 145.935-145.965
CINEMA 3 18 Apr 12:05:36 12:09:24 23° 291° (WNW) 12:13:10 145.822/145.860
UWE-3 18 Apr 12:07:36 12:12:01 42° 287° (WNW) 12:16:26 435.000/436.395/437.385
DELFI C3 18 Apr 12:10:58 12:14:31 29° 289° (WNW) 12:18:00 145.870
YUBILEINY 18 Apr 12:17:46 12:26:19 59° 91° (E) 12:34:57 435.215
HO-68 18 Apr 12:18:08 12:23:16 21° 301° (WNW) 12:28:06 435.675
BUGSAT 1 18 Apr 12:25:48 12:29:47 56° 259° (W) 12:33:46 437.445
HUMSAT D 18 Apr 12:28:08 12:32:27 60° 285° (WNW) 12:36:42 437.325/437.525
QB50P2 18 Apr 12:28:33 12:32:27 36° 263° (W) 12:36:21 145.880/145.840
VELOX 1 18 Apr 12:37:47 12:42:14 87° 284° (WNW) 12:46:40 145.980
FUNcube-1 18 Apr 12:40:09 12:43:55 25° 291° (WNW) 12:47:35 145.935
TIGRISAT 18 Apr 12:49:22 12:51:29 13° 271° (W) 12:53:23 435.000
UNISAT 6 18 Apr 12:49:58 12:51:57 12° 272° (W) 12:53:41 437.425
AISAT 18 Apr 12:52:18 12:56:41 58° 286° (WNW) 13:01:02 437.250
POPSAT HIP 1 18 Apr 12:52:52 12:56:03 20° 267° (W) 12:59:09 437.405
NANOSAT C BR1 18 Apr 12:53:33 12:56:43 20° 267° (W) 12:59:46 145.865
UKube-1 18 Apr 12:59:27 13:02:58 24° 291° (WNW) 13:06:23 .
Oscar 19 18 Apr 13:01:09 13:04:13 17° 64° (ENE) 13:07:30 437.125/150
ESTCUBE 1 18 Apr 13:02:11 13:06:42 87° 280° (W) 13:11:10 437.505/2401.250
CUBEBUG 2 18 Apr 13:02:50 13:04:16 11° 296° (WNW) 13:05:27 437.445
ZACube-1 18 Apr 13:03:02 13:05:42 15° 294° (WNW) 13:08:12 437.345
AIST 1 18 Apr 13:04:24 13:07:57 26° 75° (ENE) 13:11:33
CUBEBUG 1 18 Apr 13:07:40 13:12:01 85° 284° (WNW) 13:16:22 437.445
Cosmos 2491 18 Apr 13:08:04 13:15:49 35° 274° (W) 13:23:25 435.465 / 435.565
SPROUT 18 Apr 13:24:50 13:28:50 37° 97° (E) 13:32:52 437.525
TISAT 1 18 Apr 13:26:07 13:29:50 30° 96° (E) 13:33:36 437.305
50 SAT 18 Apr 13:32:55 13:35:42 17° 292° (WNW) 13:38:20 437.505
YUBILEINY 18 Apr 14:16:08 14:23:44 30° 292° (WNW) 14:31:06 435.215
BEESAT 2 18 Apr 14:16:19 14:20:09 36° 52° (NE) 14:23:56 435.950
Cosmos 2504 18 Apr 14:22:18 14:29:55 36° 86° (E) 14:37:48 435.465 / 435.565
BEESAT 3 18 Apr 14:25:25 14:29:27 53° 55° (NE) 14:33:24 437.485
ITUPSAT 1 18 Apr 14:25:28 14:28:59 21° 93° (E) 14:32:38 437.325
RS-15 18 Apr 14:26:21 14:29:42 12° 99° (E) 14:34:08 29.354- 29.394
AIST 2 18 Apr 14:26:52 14:29:46 18° 45° (NE) 14:32:44 435.215
SO-50 18 Apr 14:32:37 14:37:14 82° 121° (ESE) 14:42:03 436.795
Gurwin Techsat 1B 18 Apr 14:36:35 14:41:19 35° 69° (ENE) 14:46:08 435.225
Oscar 19 18 Apr 14:38:04 14:43:08 60° 259° (W) 14:48:15 437.125/150
AIST 1 18 Apr 14:42:08 14:45:32 23° 270° (W) 14:48:49
AO-7 18 Apr 14:43:29 14:47:51 16° 51° (NE) 14:52:40 29.400- 29.500
ISS 18 Apr 14:53:00 14:55:34 22° 133° (SE) 14:58:13 145.825
ITAMSAT 1 18 Apr 14:54:25 14:59:31 61° 73° (ENE) 15:04:38 435.822/435.867
BEESAT 18 Apr 15:00:51 15:05:30 50° 100° (E) 15:10:07 436.000
SPROUT 18 Apr 15:01:39 15:04:41 18° 292° (WNW) 15:07:36 437.525
SWISSCUBE 18 Apr 15:01:55 15:06:36 56° 100° (E) 15:11:16 437.505
TISAT 1 18 Apr 15:02:12 15:05:29 22° 291° (WNW) 15:08:41 437.305
HORYU 2 18 Apr 15:13:35 15:15:58 15° 65° (ENE) 15:18:32 437.375
KKS-1 18 Apr 15:32:31 15:35:39 19° 93° (E) 15:38:55 437.445
BEESAT 2 18 Apr 15:55:01 15:58:03 19° 248° (WSW) 16:00:56 435.950
ITUPSAT 1 18 Apr 16:02:37 16:07:03 38° 289° (WNW) 16:11:25 437.325
AIST 2 18 Apr 16:04:34 16:08:41 49° 243° (WSW) 16:12:41 435.215
BEESAT 3 18 Apr 16:05:09 16:07:04 13° 250° (WSW) 16:08:46 437.485
JAS-2 18 Apr 16:06:17 16:13:27 44° 68° (ENE) 16:20:45 435.910
Cosmos 2504 18 Apr 16:14:37 16:23:07 50° 285° (WNW) 16:31:39 435.465 / 435.565
SO-50 18 Apr 16:15:39 16:18:29 15° 321° (NW) 16:21:14 436.795
Gurwin Techsat 1B 18 Apr 16:16:49 16:21:22 28° 266° (W) 16:25:50 435.225
ISS 18 Apr 16:28:45 16:31:49 37° 328° (NNW) 16:34:54 145.825
RS-15 18 Apr 16:29:35 16:40:17 70° 116° (ESE) 16:51:15 29.354- 29.394
AO-7 18 Apr 16:31:13 16:39:27 74° 70° (ENE) 16:47:43 29.400- 29.500
ITAMSAT 1 18 Apr 16:36:26 16:39:31 15° 270° (W) 16:42:19 435.822/435.867
BEESAT 18 Apr 16:39:52 16:42:59 17° 295° (WNW) 16:45:57 436.000
SWISSCUBE 18 Apr 16:41:12 16:44:03 15° 295° (WNW) 16:46:42 437.505
GONETS M04 18 Apr 16:43:12 16:48:05 17° 80° (E) 16:53:33
STARS 18 Apr 16:45:52 16:50:20 79° 102° (ESE) 16:54:48 437.465
HORYU 2 18 Apr 16:47:50 16:52:13 53° 260° (W) 16:56:38 437.375
KKS-1 18 Apr 17:08:18 17:12:27 37° 289° (WNW) 17:16:34 437.445
JAS-2 18 Apr 17:51:14 17:58:28 41° 265° (W) 18:05:43 435.910
ISS 18 Apr 18:07:38 18:08:56 12° 348° (NNW) 18:10:12 145.825
MOZHAYETS 4 18 Apr 18:13:04 18:17:41 68° 101° (E) 18:22:14
CUTE-I 18 Apr 18:24:08 18:28:53 35° 69° (ENE) 18:33:43 437.470
STARS 18 Apr 18:25:44 18:26:14 10° 297° (WNW) 18:26:28 437.465
AO-7 18 Apr 18:26:45 18:33:05 23° 269° (W) 18:39:04 29.400- 29.500
Cubesat XI-IV 18 Apr 18:31:03 18:36:00 41° 70° (ENE) 18:41:01 437.490
GONETS M04 18 Apr 18:35:08 18:43:54 88° 278° (W) 18:52:46
PCSat 18 Apr 18:42:36 18:45:46 16° 43° (NE) 18:49:05 145.827
RS-15 18 Apr 18:43:39 18:53:36 37° 321° (NW) 19:03:39 29.354- 29.394
AUBIESAT-1 18 Apr 18:46:57 18:48:39 12° 92° (E) 18:50:32 437.475
Cosmos 2499 18 Apr 19:08:31 19:15:29 28° 84° (E) 19:22:43 435.465 / 435.565
DANDE 18 Apr 19:12:34 19:15:13 42° 94° (E) 19:18:25 436.750
CUSAT 1 18 Apr 19:24:50 19:27:44 70° 280° (W) 19:31:26 437.405
CUBESAT XI-V 18 Apr 19:27:21 19:31:24 31° 96° (E) 19:35:30 437.345
M-CUBED/EXP-1 PRIME 18 Apr 19:29:47 19:34:05 45° 103° (ESE) 19:38:01 437.505
STRAND 1 18 Apr 19:36:46 19:40:17 19° 92° (E) 19:43:59 437.568
ISS 18 Apr 19:45:57 19:46:29 10° 8° (N) 19:47:03 145.825
MOZHAYETS 4 18 Apr 19:52:29 19:54:24 12° 296° (WNW) 19:56:05
CUTE-I 18 Apr 20:04:27 20:09:01 28° 265° (W) 20:13:31 437.470
GOMX 1 18 Apr 20:11:48 20:13:15 12° 65° (ENE) 20:14:54 467.674
Cubesat XI-IV 18 Apr 20:11:58 20:16:18 24° 267° (W) 20:20:29 437.490
PRISM 18 Apr 20:12:10 20:16:15 60° 102° (ESE) 20:20:16 437.425
CANX-2 18 Apr 20:16:47 20:18:18 12° 65° (ENE) 20:20:02 2200.000
AUBIESAT-1 18 Apr 20:19:39 20:23:59 54° 291° (WNW) 20:27:57 437.475
SEEDS 18 Apr 20:23:08 20:23:25 10° 64° (ENE) 20:23:56 437.485
PCSat 18 Apr 20:24:31 20:29:59 86° 239° (WSW) 20:35:24 145.827
CUTE 1.7 + AOD 2 18 Apr 20:26:30 20:28:37 14° 66° (ENE) 20:30:57 437.475
VERMONT LUNAR 18 Apr 20:32:31 20:35:32 30° 154° (SSE) 20:38:34 437.305
GONETS M04 18 Apr 20:36:36 20:42:18 18° 300° (WNW) 20:47:31
HO-68 18 Apr 20:56:04 21:02:56 52° 68° (ENE) 21:09:53 435.675
AAUSAT CUBESAT 2 18 Apr 20:56:53 20:59:36 17° 68° (ENE) 21:02:28 437.432
Cosmos 2499 18 Apr 20:59:22 21:08:08 63° 282° (WNW) 21:16:52 435.465 / 435.565
RS-15 18 Apr 21:03:34 21:10:37 18° 354° (N) 21:17:45 29.354- 29.394
CUBESAT XI-V 18 Apr 21:04:59 21:08:45 24° 291° (WNW) 21:12:22 437.345
M-CUBED/EXP-1 PRIME 18 Apr 21:05:34 21:08:33 17° 300° (WNW) 21:11:15 437.505
Oscar 11 18 Apr 21:05:59 21:06:41 10° 64° (ENE) 21:07:38 145.826/435.025
STRAND 1 18 Apr 21:14:54 21:19:48 46° 288° (WNW) 21:24:37 437.568
BRITE-PL 18 Apr 21:18:59 21:23:08 72° 259° (WSW) 21:27:18 437.365/2234.400
PHONESAT 2.4 18 Apr 21:20:50 21:23:55 28° 152° (SSE) 21:27:02 2401.200-2431.200
ISS 18 Apr 21:20:58 21:23:45 26° 27° (NNE) 21:26:33 145.825
DOVE 4 18 Apr 21:23:40 21:27:39 49° 74° (ENE) 21:31:48 437.250
DELFI C3 18 Apr 21:24:42 21:26:07 12° 66° (ENE) 21:27:45 145.870
SO-50 18 Apr 21:27:43 21:28:17 10° 34° (NE) 21:29:04 436.795
CINEMA 3 18 Apr 21:29:21 21:32:57 29° 70° (ENE) 21:36:44 145.822/145.860
UWE-3 18 Apr 21:29:50 21:31:41 13° 65° (ENE) 21:33:44 435.000/436.395/437.385
COMPASS 1 18 Apr 21:41:25 21:45:36 64° 76° (ENE) 21:49:49 437.405
GOMX 1 18 Apr 21:46:55 21:50:58 54° 260° (W) 21:55:06 467.674
CANX-2 18 Apr 21:49:32 21:53:46 61° 260° (W) 21:58:03 2200.000
PRISM 18 Apr 21:49:59 21:51:15 11° 296° (WNW) 21:52:19 437.425
SEEDS 18 Apr 21:54:27 21:58:41 72° 259° (W) 22:02:58 437.485
FUNcube-1 18 Apr 21:59:10 22:02:19 21° 68° (ENE) 22:05:38 145.935
CUTE 1.7 + AOD 2 18 Apr 21:59:59 22:04:10 51° 261° (W) 22:08:22 437.475
VERMONT LUNAR 18 Apr 22:09:31 22:12:54 85° 344° (NNW) 22:16:18 437.305
AISAT 18 Apr 22:16:33 22:17:14 10° 63° (ENE) 22:18:11 437.250
UKube-1 18 Apr 22:17:32 22:20:49 22° 68° (ENE) 22:24:13 .
ZACube-1 18 Apr 22:20:27 22:24:19 36° 72° (ENE) 22:28:21 437.345
CUBEBUG 2 18 Apr 22:20:46 22:24:54 57° 75° (ENE) 22:29:14 437.445
YUBILEINY 18 Apr 22:29:57 22:36:57 27° 67° (ENE) 22:44:10 435.215
AAUSAT CUBESAT 2 18 Apr 22:31:02 22:34:59 38° 263° (W) 22:38:56 437.432
Oscar 11 18 Apr 22:38:00 22:42:20 72° 259° (WSW) 22:46:42 145.826/435.025
50 SAT 18 Apr 22:42:44 22:45:28 19° 68° (ENE) 22:48:20 437.505
HO-68 18 Apr 22:44:52 22:50:59 29° 266° (W) 22:56:58 435.675
DELFI C3 18 Apr 22:56:50 23:00:50 55° 260° (W) 23:04:53 145.870
ISS 18 Apr 22:57:09 23:00:12 37° 224° (SW) 23:03:13 145.825
DX 1 18 Apr 22:58:11 23:02:29 67° 75° (ENE) 23:06:48 434.975-435.025
PHONESAT 2.4 18 Apr 22:58:24 23:01:59 89° 172° (S) 23:05:35 2401.200-2431.200
Cosmos 2499 18 Apr 23:00:08 23:03:28 12° 304° (NW) 23:06:05 435.465 / 435.565
UWE-3 18 Apr 23:03:35 23:07:45 56° 260° (W) 23:12:04 435.000/436.395/437.385
DOVE 4 18 Apr 23:04:12 23:05:54 12° 272° (W) 23:07:23 437.250
TIGRISAT 18 Apr 23:04:27 23:06:40 14° 89° (E) 23:09:07 435.000
UNISAT 6 18 Apr 23:04:57 23:07:21 14° 89° (E) 23:09:59 437.425
SO-50 18 Apr 23:05:08 23:10:01 56° 55° (NE) 23:14:51 436.795
CINEMA 3 18 Apr 23:06:53 23:10:14 22° 267° (W) 23:13:34 145.822/145.860
HUMSAT D 18 Apr 23:18:40 23:22:50 82° 77° (ENE) 23:27:06 437.325/437.525
RS-15 18 Apr 23:19:29 23:28:31 27° 29° (NNE) 23:38:09 29.354- 29.394
O/OREOS (USA 219) 18 Apr 23:24:13 23:24:48 10° 99° (E) 23:25:40 437.305
POLYITAN 1 18 Apr 23:30:32 23:31:49 11° 89° (E) 23:33:21 437.675
VELOX 1 18 Apr 23:34:14 23:38:37 73° 75° (ENE) 23:43:01 145.980
FUNcube-1 18 Apr 23:34:40 23:38:29 32° 264° (W) 23:42:22 145.935
DUCHIFAT 1 18 Apr 23:40:29 23:42:44 14° 91° (E) 23:45:12 145.980
ANTELSAT 18 Apr 23:45:08 23:49:33 38° 97° (E) 23:53:56 437.575/2403.000
VERMONT LUNAR 18 Apr 23:47:11 23:50:35 72° 7° (N) 23:53:56 437.305
AISAT 18 Apr 23:48:55 23:53:18 74° 258° (WSW) 23:57:43 437.250
QB50P1 18 Apr 23:52:08 23:55:17 20° 93° (E) 23:58:32 145.935-145.965
UKube-1 18 Apr 23:52:59 23:56:50 30° 264° (W) 00:00:39 .
ZACube-1 18 Apr 23:57:54 00:00:53 18° 269° (W) 00:03:47 437.345
ESTCUBE 1 19 Apr 00:00:33 00:05:04 75° 75° (ENE) 00:09:36 437.505/2401.250
CUBEBUG 2 19 Apr 00:00:40 00:02:08 11° 272° (W) 00:03:21 437.445
CUBEBUG 1 19 Apr 00:02:36 00:06:55 69° 75° (ENE) 00:11:14 437.445
BUGSAT 1 19 Apr 00:09:37 00:12:44 21° 94° (E) 00:15:58 437.445
Cosmos 2491 19 Apr 00:10:13 00:18:38 59° 92° (E) 00:27:11 435.465 / 435.565
QB50P2 19 Apr 00:14:43 00:18:42 37° 98° (E) 00:22:43 145.880/145.840
50 SAT 19 Apr 00:16:33 00:20:07 31° 264° (W) 00:23:41 437.505
TISAT 1 19 Apr 00:18:00 00:21:03 20° 69° (ENE) 00:24:13 437.305
SPROUT 19 Apr 00:18:24 00:21:54 26° 70° (ENE) 00:25:28 437.525
YUBILEINY 19 Apr 00:25:53 00:34:33 64° 267° (W) 00:43:04 435.215
PHONESAT 2.4 19 Apr 00:36:47 00:40:22 72° 4° (N) 00:43:56 2401.200-2431.200
POPSAT HIP 1 19 Apr 00:37:47 00:42:04 69° 101° (ESE) 00:46:21 437.405
NANOSAT C BR1 19 Apr 00:38:12 00:42:28 69° 101° (ESE) 00:46:44 145.865
TIGRISAT 19 Apr 00:39:12 00:43:51 58° 286° (WNW) 00:48:28 435.000
UNISAT 6 19 Apr 00:39:54 00:44:33 56° 286° (WNW) 00:49:08 437.425
SO-50 19 Apr 00:46:51 00:50:11 18° 250° (WSW) 00:53:18 436.795
O/OREOS (USA 219) 19 Apr 00:59:07 01:03:42 70° 293° (WNW) 01:08:17 437.305
POLYITAN 1 19 Apr 01:03:56 01:08:10 58° 286° (WNW) 01:12:24 437.675
DUCHIFAT 1 19 Apr 01:14:46 01:18:51 45° 287° (WNW) 01:22:55 145.980
ANTELSAT 19 Apr 01:22:28 01:26:06 22° 292° (WNW) 01:29:35 437.575/2403.000
VERMONT LUNAR 19 Apr 01:24:49 01:28:04 46° 203° (SSW) 01:31:17 437.305
QB50P1 19 Apr 01:27:25 01:31:14 32° 289° (WNW) 01:35:01 145.935-145.965
ITUPSAT 1 19 Apr 01:31:29 01:35:09 23° 67° (ENE) 01:38:56 437.325
RS-15 19 Apr 01:31:46 01:43:20 76° 56° (NE) 01:55:27 29.354- 29.394
AIST 1 19 Apr 01:33:47 01:36:28 17° 88° (E) 01:39:17
BUGSAT 1 19 Apr 01:44:41 01:48:15 28° 289° (WNW) 01:51:47 437.445
QB50P2 19 Apr 01:51:22 01:54:22 18° 292° (WNW) 01:57:15 145.880/145.840
TISAT 1 19 Apr 01:52:57 01:56:41 31° 264° (W) 02:00:24 437.305
SPROUT 19 Apr 01:54:22 01:57:57 25° 266° (W) 02:01:28 437.525
BEESAT 19 Apr 02:06:13 02:10:51 51° 73° (ENE) 02:15:31 436.000
SWISSCUBE 19 Apr 02:07:20 02:12:02 57° 73° (ENE) 02:16:45 437.505
Cosmos 2491 19 Apr 02:08:39 02:16:06 29° 292° (WNW) 02:23:22 435.465 / 435.565
Cosmos 2504 19 Apr 02:09:03 02:17:13 61° 78° (ENE) 02:24:47 435.465 / 435.565
PHONESAT 2.4 19 Apr 02:15:08 02:18:37 53° 201° (SSW) 02:22:05 2401.200-2431.200
POPSAT HIP 1 19 Apr 02:16:22 02:17:27 11° 296° (WNW) 02:18:18 437.405
NANOSAT C BR1 19 Apr 02:16:51 02:17:49 10° 296° (WNW) 02:18:33 145.865
KKS-1 19 Apr 02:30:29 02:33:07 16° 66° (ENE) 02:35:57 437.445
Oscar 19 19 Apr 02:50:39 02:55:44 53° 100° (E) 03:00:49 437.125/150
Gurwin Techsat 1B 19 Apr 02:55:06 02:57:51 15° 89° (E) 03:00:53 435.225
VERMONT LUNAR 19 Apr 03:04:48 03:05:07 10° 216° (SW) 03:05:20 437.305
ITUPSAT 1 19 Apr 03:08:24 03:12:51 37° 262° (W) 03:17:18 437.325
ITAMSAT 1 19 Apr 03:09:02 03:13:03 23° 93° (E) 03:17:12 435.822/435.867
AIST 1 19 Apr 03:09:50 03:13:52 36° 283° (WNW) 03:17:52
STARS 19 Apr 03:41:40 03:45:58 59° 74° (ENE) 03:50:18 437.465
RS-15 19 Apr 03:45:21 03:55:01 30° 254° (WSW) 04:04:30 29.354- 29.394
BEESAT 19 Apr 03:46:04 03:49:03 16° 269° (W) 03:51:50 436.000
SWISSCUBE 19 Apr 03:47:43 03:50:19 14° 270° (W) 03:52:42 437.505
PHONESAT 2.4 19 Apr 03:54:45 03:56:26 13° 215° (SW) 03:58:02 2401.200-2431.200
Cosmos 2504 19 Apr 04:03:35 04:09:59 25° 277° (W) 04:15:47 435.465 / 435.565
KKS-1 19 Apr 04:05:11 04:09:26 46° 261° (W) 04:13:43 437.445
